VA3ECP Weather Reports


time (UTC)temp
F
wind
direction
speed
knots
gust
knots
rain 1hr
in
rain 24hr
in
rain mn
in
humidity
%
barometer
mb
20260510045022 52 184 6.1 7.8 0.00 0.17 0.00 94 1004.3
20260510044025 52 137 4.3 7.8 0.00 0.17 0.00 94 1003.9
20260510043020 52 147 5.2 12.2 0.00 0.17 0.00 94 1003.7
20260510042128 52 77 5.2 9.6 0.00 0.17 0.00 94 1003.7
20260510041020 53 231 3.5 10.4 0.00 0.17 0.00 94 1003.5
20260510040025 53 180 3.5 10.4 0.00 0.17 0.00 93 1003.3
20260510035026 53 190 5.2 9.6 0.01 0.17 0.17 93 1003.5
20260510034023 53 220 3.5 7.8 0.04 0.17 0.17 92 1003.5
20260510033026 54 140 5.2 7.0 0.10 0.17 0.17 92 1003.5
20260510032020 54 169 7.8 13.0 0.16 0.17 0.17 92 1003.5
20260510031029 54 192 8.7 17.4 0.17 0.17 0.17 91 1003.5
20260510030036 54 195 9.6 15.6 0.17 0.17 0.17 90 1003.2
20260510025022 54 202 10.4 17.4 0.16 0.16 0.16 89 1003.5
20260510024027 54 177 9.6 14.8 0.13 0.13 0.13 87 1003.5
20260510023123 55 188 7.8 13.0 0.07 0.07 0.07 85 1003.4
20260510022120 57 203 9.6 14.8 0.01 0.01 0.01 81 1003.1
20260510020022 58 197 8.7 14.8 0.00 0.00 0.00 76 1002.6
20260510015041 58 242 7.8 13.0 0.00 0.00 0.00 76 1002.7
20260510013033 58 234 7.8 15.6 0.00 0.00 0.00 75 1003.2
20260510012023 58 163 3.5 12.2 0.00 0.00 0.00 74 1003.1
20260510011033 59 203 1.7 7.0 0.00 0.00 0.00 74 1003.1
20260510010020 59 234 6.1 13.0 0.00 0.00 0.00 73 1003.2
20260510004023 60 201 3.5 14.8 0.00 0.00 0.00 69 1003.1
20260510003019 60 190 7.8 15.6 0.00 0.00 0.00 68 1003.1
20260510002020 60 190 4.3 12.2 0.00 0.00 0.00 67 1003.3
20260510001019 61 210 7.8 13.0 0.00 0.00 0.00 67 1003.4
20260510000031 61 183 7.8 13.0 0.00 0.00 0.00 67 1003.6
20260509235020 61 196 6.1 12.2 0.00 0.00 0.00 67 1003.8
20260509234033 61 197 7.8 13.0 0.00 0.00 0.00 67 1003.9
20260509233020 62 169 7.8 18.2 0.00 0.00 0.00 67 1004.0
20260509232020 62 246 5.2 13.0 0.00 0.00 0.00 66 1004.1
20260509231025 62 162 13.0 23.5 0.00 0.00 0.00 66 1004.1
20260509230023 63 149 7.8 17.4 0.00 0.00 0.00 64 1003.9
20260509225034 63 144 9.6 15.6 0.00 0.00 0.00 62 1003.8
20260509224140 64 206 13.0 22.6 0.00 0.00 0.00 61 1003.8
20260509223022 64 200 8.7 13.0 0.00 0.00 0.00 55 1003.6
20260509222022 64 173 5.2 14.8 0.00 0.00 0.00 53 1003.6
20260509221021 65 179 11.3 18.2 0.00 0.00 0.00 52 1003.4
20260509220038 65 155 8.7 14.8 0.00 0.00 0.00 51 1003.3
20260509215023 65 196 8.7 13.0 0.00 0.00 0.00 52 1003.5
20260509214021 65 153 10.4 20.0 0.00 0.00 0.00 51 1003.7
20260509213024 65 168 9.6 20.9 0.00 0.00 0.00 51 1003.8
20260509212028 67 204 11.3 18.2 0.00 0.00 0.00 49 1003.8
20260509211023 67 193 10.4 20.9 0.00 0.00 0.00 48 1003.7
20260509210020 67 155 11.3 20.0 0.00 0.00 0.00 47 1003.8
20260509205020 67 249 10.4 20.0 0.00 0.00 0.00 46 1003.8
20260509204022 69 166 7.8 15.6 0.00 0.00 0.00 43 1003.9
20260509203033 67 183 13.9 31.3 0.00 0.00 0.00 43 1004.0
20260509201028 70 201 12.2 20.0 0.00 0.00 0.00 40 1004.1
20260509200031 69 199 13.0 23.5 0.00 0.00 0.00 37 1004.1
20260509195125 70 144 10.4 25.2 0.00 0.00 0.00 37 1004.2
20260509194035 69 196 8.7 14.8 0.00 0.00 0.00 39 1004.3
20260509193024 69 221 9.6 25.2 0.00 0.00 0.00 39 1004.5
20260509192125 71 182 11.3 18.2 0.00 0.00 0.00 37 1004.5
20260509191020 70 179 9.6 17.4 0.00 0.00 0.00 36 1004.7
20260509190031 70 135 12.2 20.0 0.00 0.00 0.00 36 1004.8
20260509185036 70 244 14.8 27.8 0.00 0.00 0.00 36 1004.9
20260509184121 69 216 10.4 17.4 0.00 0.00 0.00 37 1005.2
20260509183026 70 197 11.3 18.2 0.00 0.00 0.00 37 1005.5
20260509181030 71 208 8.7 13.0 0.00 0.00 0.00 37 1005.7
20260509180120 70 197 11.3 20.9 0.00 0.00 0.00 36 1005.9
20260509175029 69 243 7.8 14.8 0.00 0.00 0.00 38 1006.0
20260509174027 69 201 11.3 23.5 0.00 0.00 0.00 37 1006.1
20260509173026 70 201 7.8 17.4 0.00 0.00 0.00 37 1006.0
20260509172021 68 202 12.2 28.7 0.00 0.00 0.00 37 1006.2
20260509171022 69 197 11.3 25.2 0.00 0.00 0.00 37 1006.4
20260509170119 69 205 12.2 20.0 0.00 0.00 0.00 37 1006.7
20260509165019 69 177 8.7 15.6 0.00 0.00 0.00 37 1006.8
20260509164029 69 191 10.4 20.0 0.00 0.00 0.00 37 1007.0
20260509163029 68 198 6.1 10.4 0.00 0.00 0.00 38 1007.1
20260509162026 68 216 9.6 15.6 0.00 0.00 0.00 38 1007.2
20260509161033 67 187 13.0 22.6 0.00 0.00 0.00 37 1007.4
20260509160025 66 160 13.0 20.0 0.00 0.00 0.00 39 1007.7
20260509155032 67 181 12.2 18.2 0.00 0.00 0.00 38 1007.9
20260509154020 66 196 9.6 18.2 0.00 0.00 0.00 40 1008.1
20260509153021 66 208 7.8 10.4 0.00 0.00 0.00 41 1008.4
20260509152032 66 209 8.7 18.2 0.00 0.00 0.00 43 1008.5
20260509151025 66 178 7.8 15.6 0.00 0.00 0.00 44 1008.7
20260509150035 65 188 6.1 10.4 0.00 0.00 0.00 45 1008.8
20260509145023 64 110 9.6 17.4 0.00 0.00 0.00 46 1008.9
20260509144030 64 175 5.2 10.4 0.00 0.00 0.00 49 1008.9
20260509143020 63 153 7.0 17.4 0.00 0.00 0.00 51 1009.0
20260509142019 62 154 2.6 5.2 0.00 0.00 0.00 53 1009.2
20260509141122 61 201 1.7 7.0 0.00 0.00 0.00 54 1009.2
20260509140028 59 165 5.2 7.8 0.00 0.00 0.00 55 1009.2
20260509135025 58 159 5.2 13.0 0.00 0.00 0.00 56 1009.3
20260509134023 57 151 3.5 9.6 0.00 0.00 0.00 57 1009.4
20260509133022 55 166 5.2 13.0 0.00 0.00 0.00 58 1009.5
20260509132023 55 198 1.7 10.4 0.00 0.00 0.00 58 1009.7
20260509131028 53 214 4.3 9.6 0.00 0.00 0.00 59 1009.7
20260509130037 53 182 5.2 13.0 0.00 0.00 0.00 60 1009.9
20260509125021 52 160 2.6 7.0 0.00 0.00 0.00 61 1009.9
20260509124126 51 159 2.6 7.0 0.00 0.00 0.00 61 1010.0
20260509123023 50 172 3.5 10.4 0.00 0.00 0.00 63 1010.1
20260509122021 49 203 3.5 7.0 0.00 0.00 0.00 65 1010.2
20260509121121 47 208 3.5 7.8 0.00 0.00 0.00 67 1010.1
20260509120024 46 167 3.5 9.6 0.00 0.00 0.00 68 1010.1
20260509115036 45 184 2.6 7.8 0.00 0.00 0.00 70 1010.1
20260509114047 44 198 2.6 5.2 0.00 0.00 0.00 71 1010.0
20260509113033 43 162 6.1 10.4 0.00 0.00 0.00 73 1009.9
20260509112025 42 199 2.6 7.0 0.00 0.00 0.00 75 1009.9
20260509111032 42 203 0.0 2.6 0.00 0.00 0.00 76 1009.8
20260509110020 41 196 4.3 9.6 0.00 0.00 0.00 77 1009.8
20260509104030 39 214 0.9 4.3 0.00 0.00 0.00 82 1009.6
20260509103146 37 0.0 0.0 0.00 0.00 0.00 85 1009.6
20260509102023 36 0.0 0.0 0.00 0.00 0.00 85 1009.6
20260509101028 36 0.0 0.0 0.00 0.00 0.00 85 1009.6
20260509100023 36 0.0 0.0 0.00 0.00 0.00 85 1009.6
20260509095021 36 0.0 4.3 0.00 0.00 0.00 85 1009.6
20260509094147 37 0.0 0.0 0.00 0.00 0.00 84 1009.6
20260509092027 38 203 0.9 5.2 0.00 0.00 0.00 84 1009.5
20260509091021 38 225 1.7 7.0 0.00 0.00 0.00 84 1009.5
20260509085024 38 180 0.9 7.8 0.00 0.00 0.00 84 1009.5
20260509083029 38 180 0.9 4.3 0.00 0.00 0.00 84 1009.6
20260509082019 38 0.0 5.2 0.00 0.00 0.00 84 1009.6
20260509081020 38 0.0 0.0 0.00 0.00 0.00 83 1009.6
20260509080158 39 180 0.9 5.2 0.00 0.00 0.00 83 1009.6
20260509075025 39 0.0 0.0 0.00 0.00 0.00 82 1009.7
20260509074033 39 0.0 0.0 0.00 0.00 0.00 82 1009.7
20260509073024 39 178 1.7 5.2 0.00 0.00 0.00 82 1009.6
20260509072026 40 190 0.9 7.0 0.00 0.00 0.00 81 1009.6
20260509071020 40 196 2.6 7.0 0.00 0.00 0.00 81 1009.8
20260509070028 40 191 1.7 7.0 0.00 0.00 0.00 81 1009.8
20260509065035 40 188 2.6 5.2 0.00 0.00 0.00 80 1009.8
20260509064025 40 165 2.6 7.0 0.00 0.00 0.00 80 1009.7
20260509063033 41 176 3.5 7.8 0.00 0.00 0.00 80 1009.8
20260509062024 41 204 2.6 7.8 0.00 0.00 0.00 79 1009.9
20260509061021 41 171 5.2 10.4 0.00 0.00 0.00 79 1009.9
20260509060021 41 190 3.5 9.6 0.00 0.00 0.00 79 1010.0
20260509055028 42 167 0.9 4.3 0.00 0.00 0.00 78 1010.0
20260509054022 42 163 6.1 13.0 0.00 0.00 0.00 78 1010.0
20260509053030 42 168 5.2 7.8 0.00 0.00 0.00 77 1010.1
20260509052029 42 176 4.3 9.6 0.00 0.00 0.00 77 1010.2
20260509051023 43 182 7.0 9.6 0.00 0.00 0.00 77 1010.3
20260509050025 43 235 0.9 4.3 0.00 0.00 0.00 76 1010.3
20260509045121 43 63 3.5 13.0 0.00 0.00 0.00 75 1010.2